[[{"header":{"parameterUnit":"m.s-1","parameterCategory":1,"la1":30.2991,"la2":30.254,"lo1":-89.0895,"lo2":-89.0444,"dy":0.0017,"dx":0.0017,"nx":28,"ny":28,"refTime":"2025-04-17T21:00:00:Z","depth":0,"parameterNumber":2,"parameterNumberName":"U-component_of_WINDS"},"data":[0,0,0,0,0,0,0,0,0,0,0,0,0,0,0,0,0,0,0,0,0,0,0,0,0,0,0,0,0,0,0,0,0,0,0,0,0,0,0,0,0,0,0,0,0,0,0,0,0,0,0,0,0,0,0,0,0,0,-1.0107,-1.0107,0,-1.0155,-1.0155,-1.0156,-1.017,-1.017,-1.017,-1.0169,-1.0221,-1.0222,-1.0224,0,0,0,0,0,0,0,0,0,0,0,0,0,-1.0031,-1.0033,-1.0107,-1.0107,-1.0108,-1.0155,-1.0155,-1.0156,-1.017,-1.017,-1.017,-1.0169,-1.022,-1.0222,-1.0224,0,0,0,0,0,0,0,0,0,0,0,0,0,-1.007,-1.0033,-1.0107,-1.0121,-1.0122,-1.0154,-1.0155,-1.0156,-1.017,-1.017,-1.017,-1.0169,-1.022,-1.0222,-1.0224,-1.0247,0,0,-1.0232,-1.0233,0,0,0,0,0,0,0,0,-1.0068,-1.0073,-1.0118,-1.012,-1.0122,-1.0156,-1.0147,-1.0186,-1.017,-1.0152,-1.0169,-1.0169,-1.02,-1.0204,-1.0214,-1.0249,-1.0251,-1.0232,-1.0233,-1.0234,-1.0235,0,0,0,0,0,0,0,-1.0065,-1.0071,-1.0126,-1.0119,-1.0121,-1.0126,-1.0131,-1.0155,-1.0178,-1.0154,-1.0155,-1.016,-1.0201,-1.0211,-1.0215,-1.0252,-1.0232,-1.0234,-1.0235,-1.0236,-1.0309,-1.031,0,0,0,0,0,0,-1.006,-1.0069,-1.0124,-1.0127,-1.0093,-1.0127,-1.0133,-1.0145,-1.0177,-1.0182,-1.016,-1.0161,-1.0207,-1.0212,-1.0217,-1.0246,-1.0234,-1.0237,-1.0238,-1.0309,-1.031,-1.031,0,0,0,0,0,0,-1.0058,-1.0065,-1.0122,-1.0098,-1.0106,-1.0129,-1.0143,-1.0147,-1.0157,-1.0182,-1.0187,-1.0167,-1.0207,-1.0213,-1.0239,-1.0248,-1.0238,-1.024,-1.0308,-1.0309,-1.031,-1.0303,0,0,0,0,0,0,-1.0056,-1.0064,-1.0072,-1.0098,-1.0107,-1.0143,-1.0143,-1.0148,-1.0161,-1.0162,-1.019,-1.0194,-1.0207,-1.0236,-1.0242,-1.0251,-1.0242,-1.0308,-1.0309,-1.031,-1.0303,-1.0304,-1.0304,0,0,0,0,0,-1.0053,-1.0068,-1.0072,-1.0079,-1.0117,-1.0143,-1.0149,-1.0163,-1.0161,-1.017,-1.0187,-1.0193,-1.0246,-1.0238,-1.0245,-1.0255,-1.0307,-1.0308,-1.031,-1.0302,-1.0303,-1.0304,0,0,0,0,0,0,-1.0043,-1.0072,-1.0076,-1.01,-1.0119,-1.0146,-1.0157,-1.0164,-1.0184,-1.0184,-1.0202,-1.0208,-1.0233,-1.0247,-1.0238,-1.0279,-1.0277,-1.0279,-1.0269,-1.027,-1.0271,-1.0267,-1.0244,0,0,0,0,0,-1.0043,-1.0061,-1.0086,-1.0105,-1.0114,-1.0134,-1.0146,-1.0155,-1.0176,-1.0184,-1.0202,-1.0223,-1.0244,-1.0258,-1.0279,-1.0305,-1.0312,-1.0315,-1.0316,-1.0317,-1.0319,-1.0334,-1.0337,-1.0314,-1.0314,-1.0314,0,0,-1.0044,-1.0063,-1.0073,-1.0103,-1.0119,-1.0138,-1.014,-1.016,-1.0175,-1.0188,-1.0213,-1.0227,-1.0251,-1.0278,-1.029,-1.029,-1.0327,-1.0318,-1.0318,-1.032,-1.0336,-1.0338,-1.034,-1.0315,-1.0314,-1.0314,0,0,-1.0056,-1.0071,-1.0089,-1.0105,-1.0128,-1.0142,-1.0146,-1.0172,-1.0182,-1.0207,-1.0217,-1.0236,-1.0272,-1.0289,-1.0302,-1.0322,-1.0329,-1.0328,-1.0332,-1.0347,-1.0349,-1.0351,-1.0359,-1.0361,-1.033,-1.033,-1.033,0,-1.0055,-1.0083,-1.0098,-1.0117,-1.0131,-1.0142,-1.0161,-1.0176,-1.0206,-1.0215,-1.0214,-1.026,-1.0278,-1.0308,-1.0313,-1.0323,-1.033,-1.0325,-1.0348,-1.035,-1.0351,-1.0359,-1.0362,-1.033,-1.033,-1.033,-1.033,0,-1.0081,-1.0101,-1.0113,-1.014,-1.0155,-1.0174,-1.0192,-1.0206,-1.0215,-1.0228,-1.0255,-1.0276,-1.0302,-1.031,-1.0319,-1.0342,-1.0342,-1.0344,-1.0342,-1.0353,-1.0361,-1.0364,-1.033,-1.033,-1.033,-1.033,0,0,-1.0088,-1.0123,-1.0128,-1.0141,-1.0168,-1.0184,-1.0204,-1.0229,-1.024,-1.0261,-1.0279,-1.0309,-1.0312,-1.0327,-1.0338,-1.0351,-1.0367,-1.0352,-1.0353,-1.0355,-1.0395,-1.0394,-1.0397,-1.0371,-1.0372,-1.0372,-1.0393,0,-1.0104,-1.014,-1.0153,-1.0183,-1.0202,-1.0213,-1.0231,-1.025,-1.0264,-1.0283,-1.0299,-1.032,-1.0321,-1.0331,-1.0344,-1.0362,-1.0375,-1.036,-1.0389,-1.039,-1.0383,-1.04,-1.0399,-1.0417,-1.0396,-1.0397,-1.0397,0,-1.0128,-1.0147,-1.0178,-1.0204,-1.0212,-1.0228,-1.0252,-1.027,-1.0292,-1.0301,-1.0319,-1.0329,-1.0352,-1.0348,-1.0381,-1.0371,-1.0384,-1.0394,-1.0395,-1.0399,-1.0395,-1.0405,-1.0424,-1.0427,-1.0402,-1.0401,-1.0401,0,-1.013,-1.0165,-1.0188,-1.0199,-1.0229,-1.024,-1.0253,-1.0275,-1.0289,-1.0311,-1.0321,-1.0345,-1.0358,-1.0377,-1.0394,-1.039,-1.0425,-1.0423,-1.0435,-1.0434,-1.0442,-1.0441,-1.0463,-1.0449,-1.0449,-1.0449,-1.0449,0,-1.0147,-1.0166,-1.019,-1.0204,-1.0226,-1.0242,-1.0264,-1.0278,-1.0298,-1.0316,-1.0328,-1.0345,-1.0366,-1.0386,-1.04,-1.0425,-1.0431,-1.044,-1.0443,-1.0439,-1.0438,-1.0448,-1.0447,-1.045,-1.0449,-1.0449,-1.0449,0,-1.0154,-1.0171,-1.0197,-1.0223,-1.023,-1.0245,-1.0268,-1.0284,-1.0298,-1.0321,-1.0327,-1.035,-1.0374,-1.0393,-1.0425,-1.0434,-1.0461,-1.0465,-1.0454,-1.0455,-1.0466,-1.0465,-1.0496,-1.0501,-1.0483,-1.0483,-1.0483,0,-1.0164,-1.0179,-1.0206,-1.0219,-1.0232,-1.0252,-1.0267,-1.0284,-1.0298,-1.0326,-1.0338,-1.0363,-1.0384,-1.0423,-1.0443,-1.0467,-1.0472,-1.0481,-1.0476,-1.0471,-1.0473,-1.0472,-1.0474,-1.0482,-1.0482,-1.0482,-1.0482,0,-1.018,-1.0188,-1.0207,-1.023,-1.0247,-1.0266,-1.0285,-1.0295,-1.0316,-1.0332,-1.0357,-1.0373,-1.0406,-1.0431,-1.0458,-1.0473,-1.0482,-1.0483,-1.0488,-1.0484,-1.0477,-1.0481,-1.0456,-1.0483,-1.0483,-1.0483,-1.0483,-1.0483,-1.019,-1.0203,-1.0225,-1.0247,-1.0263,-1.0281,-1.0297,-1.0313,-1.0333,-1.0361,-1.037,-1.0395,-1.0419,-1.0456,-1.0471,-1.0492,-1.0493,-1.0498,-1.05,-1.0501,-1.0501,-1.0473,-1.0497,-1.0497,-1.0497,-1.0497,-1.0497,0,-1.0207,-1.0222,-1.0242,-1.0268,-1.0286,-1.0291,-1.0313,-1.0328,-1.035,-1.037,-1.0391,-1.042,-1.0444,-1.0466,-1.0492,-1.0505,-1.051,-1.0511,-1.0511,-1.0515,-1.0499,-1.0493,-1.0507,-1.0507,-1.0507,-1.0507,-1.0507,-1.0507,-1.0218,-1.0242,-1.0252,-1.0285,-1.03,-1.0324,-1.0336,-1.0354,-1.037,-1.0401,-1.0422,-1.0436,-1.0457,-1.0485,-1.0508,-1.0514,-1.0524,-1.0524,-1.0532,-1.0517,-1.0515,-1.0514,-1.0509,-1.0526,-1.0526,-1.0546,-1.0546,-1.0546]},{"header":{"parameterUnit":"m.s-1","parameterCategory":1,"la1":30.2991,"la2":30.254,"lo1":-89.0895,"lo2":-89.0444,"dy":0.0017,"dx":0.0017,"nx":28,"ny":28,"refTime":"2025-04-17T21:00:00:Z","depth":0,"parameterNumber":3,"parameterNumberName":"V-component_of_WINDS"},"data":[0,0,0,0,0,0,0,0,0,0,0,0,0,0,0,0,0,0,0,0,0,0,0,0,0,0,0,0,0,0,0,0,0,0,0,0,0,0,0,0,0,0,0,0,0,0,0,0,0,0,0,0,0,0,0,0,0,0,6.2053,6.2054,0,6.215,6.2151,6.2152,6.2094,6.2091,6.2089,6.2086,6.2178,6.2183,6.2188,0,0,0,0,0,0,0,0,0,0,0,0,0,6.1809,6.1813,6.2053,6.2054,6.2056,6.215,6.2151,6.2153,6.2095,6.2091,6.2088,6.2085,6.2176,6.2182,6.2188,0,0,0,0,0,0,0,0,0,0,0,0,0,6.1911,6.1815,6.2053,6.2038,6.2038,6.215,6.2152,6.2153,6.2095,6.2091,6.2087,6.2083,6.2174,6.2182,6.2189,6.2319,0,0,6.2212,6.2216,0,0,0,0,0,0,0,0,6.1905,6.192,6.2039,6.2039,6.2039,6.2106,6.2099,6.2209,6.2096,6.2073,6.2086,6.2081,6.2157,6.2166,6.2193,6.2324,6.2328,6.2213,6.2218,6.2221,6.2223,0,0,0,0,0,0,0,6.1898,6.1915,6.2091,6.2041,6.2041,6.2024,6.2034,6.2119,6.2137,6.2075,6.2071,6.2084,6.2156,6.2186,6.2195,6.2329,6.2213,6.222,6.2224,6.2227,6.2568,6.2572,0,0,0,0,0,0,6.1893,6.191,6.2088,6.2094,6.1961,6.2032,6.2043,6.2089,6.2136,6.2139,6.2087,6.2081,6.2175,6.2186,6.2198,6.2351,6.2221,6.2228,6.2232,6.2563,6.2569,6.2573,0,0,0,0,0,0,6.1888,6.191,6.2084,6.2001,6.2022,6.204,6.2092,6.2093,6.2122,6.2145,6.2147,6.2115,6.2172,6.2187,6.2289,6.2353,6.2231,6.2238,6.2558,6.2565,6.2571,6.266,0,0,0,0,0,0,6.1882,6.1908,6.196,6.2003,6.2027,6.2177,6.2096,6.2098,6.2136,6.2129,6.2172,6.2175,6.217,6.2278,6.2297,6.2361,6.2244,6.2552,6.2561,6.2569,6.2651,6.2668,6.2683,0,0,0,0,0,6.1873,6.198,6.1963,6.1985,6.2092,6.2181,6.2194,6.2189,6.2142,6.2192,6.2207,6.2173,6.2344,6.2289,6.231,6.2377,6.2548,6.2558,6.2568,6.2644,6.2665,6.2683,0,0,0,0,0,0,6.1942,6.1986,6.1967,6.2092,6.2134,6.2171,6.2235,6.2212,6.2266,6.2256,6.2245,6.2255,6.2361,6.238,6.2318,6.2504,6.2438,6.2453,6.2488,6.2509,6.2525,6.2517,6.225,0,0,0,0,0,6.1973,6.2044,6.2077,6.2183,6.2205,6.2217,6.2255,6.2247,6.2289,6.2306,6.2327,6.2367,6.2429,6.247,6.2529,6.2654,6.266,6.271,6.2726,6.2739,6.2752,6.2816,6.2838,6.2607,6.2607,6.2607,0,0,6.2035,6.2067,6.2113,6.2198,6.2229,6.23,6.2232,6.231,6.2362,6.2317,6.2415,6.2432,6.2475,6.2589,6.264,6.2607,6.2817,6.2752,6.2763,6.2768,6.2829,6.2851,6.287,6.2614,6.2612,6.2611,0,0,6.2184,6.2217,6.2309,6.2342,6.2391,6.2398,6.242,6.2461,6.2471,6.257,6.2537,6.2596,6.2705,6.2736,6.2766,6.2926,6.2896,6.2945,6.303,6.3093,6.3111,6.3127,6.3181,6.3201,6.2958,6.2958,6.2958,0,6.2255,6.2363,6.2358,6.2439,6.2476,6.2441,6.2531,6.2563,6.2627,6.2652,6.2616,6.2749,6.2776,6.2895,6.2934,6.2961,6.2982,6.294,6.3109,6.3125,6.314,6.3192,6.3213,6.2963,6.2963,6.2962,6.2962,0,6.2446,6.2521,6.2589,6.2654,6.2699,6.2785,6.2789,6.2835,6.2823,6.2832,6.2931,6.2962,6.3025,6.3053,6.3042,6.317,6.3148,6.3111,6.3044,6.3168,6.3216,6.3236,6.2971,6.2969,6.2968,6.2966,0,0,6.2641,6.2703,6.2728,6.2756,6.2807,6.2863,6.2946,6.301,6.3048,6.3093,6.3159,6.3251,6.3217,6.3251,6.3242,6.3298,6.3419,6.3253,6.3254,6.3281,6.3559,6.3586,6.361,6.3401,6.3404,6.3407,6.3555,0,6.2792,6.2939,6.2936,6.3071,6.3139,6.3105,6.3176,6.3214,6.3225,6.3281,6.3292,6.3356,6.3307,6.3327,6.3381,6.3393,6.3475,6.3383,6.3459,6.3462,6.3448,6.3635,6.3664,6.3802,6.3574,6.3577,6.358,0,6.2988,6.3042,6.3184,6.3224,6.3252,6.3316,6.3373,6.3429,6.3469,6.3473,6.3511,6.3493,6.3573,6.3506,6.3614,6.3551,6.3582,6.3593,6.3598,6.3603,6.3527,6.3643,6.3846,6.3866,6.361,6.3608,6.3605,0,6.3114,6.3222,6.332,6.3346,6.3395,6.344,6.3462,6.3499,6.3536,6.3585,6.3609,6.3666,6.3697,6.374,6.3737,6.3688,6.3846,6.3778,6.3848,6.3849,6.3882,6.3879,6.409,6.3905,6.3905,6.3905,6.3904,0,6.3282,6.3369,6.3377,6.3437,6.3533,6.3528,6.3622,6.3639,6.3672,6.3732,6.3706,6.3763,6.3756,6.3813,6.3811,6.3899,6.3913,6.3916,6.3914,6.3918,6.3917,6.3936,6.3926,6.391,6.3909,6.3908,6.3907,0,6.3438,6.3447,6.3552,6.359,6.3601,6.367,6.3701,6.3756,6.3765,6.3842,6.3859,6.3872,6.3937,6.3938,6.4012,6.401,6.4118,6.4106,6.4105,6.4102,6.4171,6.4164,6.44,6.4429,6.4227,6.4229,6.4231,0,6.3543,6.361,6.3656,6.3696,6.3721,6.3786,6.3824,6.382,6.3861,6.3911,6.396,6.4023,6.4073,6.4177,6.4191,6.4247,6.4235,6.4314,6.4243,6.4243,6.4233,6.4228,6.4234,6.4327,6.4329,6.4331,6.4332,0,6.3729,6.373,6.3789,6.3849,6.3896,6.3942,6.3985,6.4018,6.4019,6.4066,6.4133,6.4172,6.4247,6.4309,6.4363,6.4381,6.4356,6.4355,6.4374,6.4377,6.4373,6.4374,6.414,6.4349,6.4347,6.4346,6.4345,6.4345,6.3862,6.3919,6.396,6.4025,6.4057,6.4097,6.4151,6.4166,6.4223,6.4286,6.4279,6.4353,6.4389,6.4459,6.4483,6.4538,6.451,6.4538,6.4545,6.4551,6.4557,6.4366,6.4548,6.4547,6.4547,6.4547,6.4546,0,6.4044,6.4069,6.4129,6.419,6.4241,6.4216,6.4261,6.4304,6.437,6.4407,6.4457,6.4532,6.4591,6.461,6.4666,6.4707,6.4697,6.4722,6.4718,6.4722,6.458,6.4557,6.4729,6.4729,6.4729,6.4729,6.4729,6.4729,6.4145,6.424,6.4245,6.4354,6.4377,6.4451,6.4479,6.4515,6.4544,6.463,6.468,6.4692,6.4721,6.4779,6.4831,6.4835,6.4855,6.4885,6.4884,6.4751,6.4732,6.4715,6.4693,6.489,6.489,6.502,6.5022,6.5022]}]]